Time,TemperatureF,DewpointF,PressureIn,WindDirection,WindDirectionDegrees,WindSpeedMPH,WindSpeedGustMPH,Humidity,HourlyPrecipIn,Conditions,Clouds,dailyrainin,SoftwareType,DateUTC
2013-06-20 00:02:00,73.0,59.0,17.72,South,187,0.0,3.0,61,0.00,,,-99.99,,2013-06-20 05:02:00,
2013-06-20 01:11:00,73.0,64.0,17.72,South,186,3.0,5.0,73,0.00,,,-99.99,,2013-06-20 06:11:00,
2013-06-20 01:22:00,73.0,64.0,17.72,South,183,3.0,4.0,73,0.00,,,-99.99,,2013-06-20 06:22:00,
2013-06-20 01:33:00,73.0,64.0,17.72,South,183,3.0,4.0,73,0.00,,,-99.99,,2013-06-20 06:33:00,
2013-06-20 01:43:00,73.0,64.0,17.72,South,183,3.0,4.0,73,0.00,,,-99.99,,2013-06-20 06:43:00,
2013-06-20 01:53:00,72.0,63.0,17.72,SSW,193,4.0,5.0,73,0.00,,,-99.99,,2013-06-20 06:53:00,
2013-06-20 02:01:00,72.0,63.0,17.72,South,185,4.0,5.0,73,0.00,,,-99.99,,2013-06-20 07:01:00,
2013-06-20 02:12:00,72.0,63.0,17.72,South,189,3.0,5.0,73,0.00,,,-99.99,,2013-06-20 07:12:00,
2013-06-20 02:22:00,73.0,64.0,17.72,SSW,192,6.0,8.0,73,0.00,,,-99.99,,2013-06-20 07:22:00,
2013-06-20 02:34:00,73.0,64.0,17.72,South,186,6.0,9.0,73,0.00,,,-99.99,,2013-06-20 07:34:00,
2013-06-20 02:44:00,72.0,69.0,17.72,South,180,6.0,8.0,91,0.00,,,-99.99,,2013-06-20 07:44:00,
2013-06-20 02:52:00,72.0,63.0,17.72,South,181,5.0,6.0,73,0.00,,,-99.99,,2013-06-20 07:52:00,
2013-06-20 03:02:00,71.0,68.0,17.72,South,187,5.0,6.0,91,0.00,,,-99.99,,2013-06-20 08:02:00,
2013-06-20 03:11:00,71.0,71.0,17.72,South,183,5.0,6.0,100,0.00,,,-99.99,,2013-06-20 08:11:00,
2013-06-20 03:22:00,71.0,71.0,17.72,South,183,4.0,5.0,100,0.00,,,-99.99,,2013-06-20 08:22:00,
2013-06-20 03:34:00,70.0,70.0,17.72,South,183,3.0,5.0,100,0.00,,,-99.99,,2013-06-20 08:34:00,
2013-06-20 03:43:00,70.0,70.0,17.72,South,183,3.0,5.0,100,0.00,,,-99.99,,2013-06-20 08:43:00,
2013-06-20 03:53:00,70.0,70.0,17.72,South,183,3.0,5.0,100,0.00,,,-99.99,,2013-06-20 08:53:00,
2013-06-20 04:02:00,70.0,70.0,17.72,South,184,5.0,5.0,100,0.00,,,-99.99,,2013-06-20 09:02:00,
2013-06-20 04:12:00,70.0,70.0,17.72,South,183,5.0,5.0,100,0.00,,,-99.99,,2013-06-20 09:12:00,
2013-06-20 04:22:00,70.0,70.0,17.72,South,183,5.0,5.0,100,0.00,,,-99.99,,2013-06-20 09:22:00,
2013-06-20 04:33:00,70.0,70.0,17.72,South,182,5.0,5.0,100,0.00,,,-99.99,,2013-06-20 09:33:00,
2013-06-20 04:42:00,69.0,69.0,17.72,South,182,5.0,5.0,100,0.00,,,-99.99,,2013-06-20 09:42:00,
2013-06-20 04:52:00,70.0,70.0,17.72,South,180,4.0,5.0,100,0.00,,,-99.99,,2013-06-20 09:52:00,
2013-06-20 05:01:00,69.0,69.0,17.72,South,181,5.0,5.0,100,0.00,,,-99.99,,2013-06-20 10:01:00,
2013-06-20 05:11:00,69.0,69.0,17.72,South,181,5.0,5.0,100,0.00,,,-99.99,,2013-06-20 10:11:00,
2013-06-20 05:22:00,69.0,69.0,17.72,South,181,0.0,4.0,100,0.00,,,-99.99,,2013-06-20 10:22:00,
2013-06-20 05:34:00,69.0,69.0,17.72,South,183,4.0,5.0,100,0.00,,,-99.99,,2013-06-20 10:34:00,
2013-06-20 05:43:00,69.0,69.0,17.72,South,177,4.0,5.0,100,0.00,,,-99.99,,2013-06-20 10:43:00,
2013-06-20 05:53:00,69.0,69.0,17.72,South,183,5.0,5.0,100,0.00,,,-99.99,,2013-06-20 10:53:00,
2013-06-20 06:02:00,69.0,69.0,17.72,South,182,5.0,5.0,100,0.00,,,-99.99,,2013-06-20 11:02:00,
2013-06-20 06:12:00,69.0,69.0,17.72,South,182,5.0,5.0,100,0.00,,,-99.99,,2013-06-20 11:12:00,
2013-06-20 06:22:00,68.0,68.0,17.72,South,185,0.0,0.0,100,0.00,,,-99.99,,2013-06-20 11:22:00,
2013-06-20 06:34:00,69.0,69.0,17.72,South,185,0.0,5.0,100,0.00,,,-99.99,,2013-06-20 11:34:00,
2013-06-20 06:42:00,69.0,69.0,17.72,South,185,3.0,5.0,100,0.00,,,-99.99,,2013-06-20 11:42:00,
2013-06-20 06:53:00,69.0,69.0,17.72,South,184,3.0,5.0,100,0.00,,,-99.99,,2013-06-20 11:53:00,
2013-06-20 07:02:00,69.0,69.0,17.72,South,181,0.0,5.0,100,0.00,,,-99.99,,2013-06-20 12:02:00,
2013-06-20 07:11:00,70.0,70.0,17.72,South,181,4.0,5.0,100,0.00,,,-99.99,,2013-06-20 12:11:00,
2013-06-20 07:34:00,73.0,73.0,17.72,South,178,3.0,6.0,100,0.00,,,-99.99,,2013-06-20 12:34:00,
2013-06-20 07:43:00,75.0,66.0,17.72,South,179,2.0,6.0,73,0.00,,,-99.99,,2013-06-20 12:43:00,
2013-06-20 08:02:00,75.0,66.0,17.72,South,182,6.0,8.0,73,0.00,,,-99.99,,2013-06-20 13:02:00,
2013-06-20 08:11:00,75.0,66.0,17.72,South,182,6.0,8.0,73,0.00,,,-99.99,,2013-06-20 13:11:00,
2013-06-20 08:33:00,77.0,60.0,17.72,South,176,8.0,9.0,55,0.00,,,-99.99,,2013-06-20 13:33:00,
2013-06-20 08:42:00,79.0,61.0,17.72,South,184,8.0,10.0,55,0.00,,,-99.99,,2013-06-20 13:42:00,
2013-06-20 09:22:00,81.0,60.0,17.72,SE,146,6.0,10.0,49,0.00,,,-99.99,,2013-06-20 14:22:00,